This demonstration page uses our WeatherBlox Daily Observations layout. Learn more.

Left ArrowRight Arrow

39.08367, -84.50855

Hourly Observations for February 4, 2016

Temp ( °F °C ) Dew Point ( °F °C ) Humidity (%) Winds ( mph kmh ) Pressure ( in mb ) Visibility ( mi km ) Precip ( " mm )
12:53 am 00:53 Cloudy 36 2.2 29 -1.7 76 76 W 14 22 30.11 1020 10 16 N/A
1:53 am 01:53 Cloudy 35 1.7 29 -1.7 78 78 W 14 22 30.14 1021 10 16 N/A
2:11 am 02:11 Cloudy 35 1.7 28 -2.2 76 76 W 9 15 30.15 1021 10 16 N/A
2:34 am 02:34 Cloudy 35 1.7 27 -2.8 72 72 W 9 15 30.15 1021 10 16 N/A
2:53 am 02:53 Cloudy 35 1.7 26 -3.3 70 70 W 8 13 30.16 1021 10 16 N/A
3:48 am 03:48 Cloudy 34 1 25 -4 70 70 W 10 17 30.21 1023 10 16 N/A
3:53 am 03:53 Cloudy 34 1.1 25 -3.9 70 70 W 12 19 30.17 1022 10 16 N/A
4:25 am 04:25 Cloudy 34 1.1 24 -4.4 67 67 WNW 9 15 30.21 1023 10 16 N/A
4:39 am 04:39 Cloudy 33 0.6 24 -4.4 70 70 NW 9 15 30.21 1023 10 16 N/A
4:53 am 04:53 Cloudy 33 0.6 24 -4.4 70 70 VRB 7 11 30.19 1022 10 16 N/A
5:53 am 05:53 Cloudy 33 0.6 23 -5 66 66 W 8 13 30.21 1023 10 16 N/A
6:53 am 06:53 Cloudy 33 0.6 23 -5 66 66 NW 5 7 30.22 1023 10 16 N/A
7:53 am 07:53 Cloudy 32 undefined 23 -5 69 69 NNW 6 9 30.24 1024 10 16 N/A
8:53 am 08:53 Cloudy 33 0.6 23 -5 66 66 W 7 11 30.25 1025 10 16 N/A
9:53 am 09:53 Cloudy 33 0.6 23 -5 66 66 WNW 7 11 30.27 1025 10 16 N/A
10:53 am 10:53 Cloudy 33 0.6 24 -4.4 70 70 W 9 15 30.28 1025 10 16 N/A
11:53 am 11:53 Cloudy 33 0.6 23 -5 66 66 WNW 7 11 30.27 1025 10 16 N/A
12:53 pm 12:53 Cloudy 33 0.6 23 -5 66 66 W 7 11 30.26 1025 10 16 N/A
1:42 pm 13:42 Cloudy 34 1 23 -5 65 65 W 9 15 30.27 1025 10 16 N/A
1:53 pm 13:53 Cloudy 33 0.6 22 -5.6 64 64 W 10 17 30.25 1024 10 16 N/A
2:53 pm 14:53 Cloudy 34 1.1 20 -6.7 56 56 W 8 13 30.25 1024 10 16 N/A
3:53 pm 15:53 Cloudy 33 0.6 23 -5 66 66 W 8 13 30.26 1025 10 16 N/A
4:53 pm 16:53 Cloudy 33 0.6 21 -6.1 61 61 WNW 8 13 30.28 1026 10 16 N/A
5:53 pm 17:53 Cloudy 32 undefined 20 -6.7 61 61 WNW 7 11 30.29 1026 10 16 N/A
6:53 pm 18:53 Clear 31 -0.6 19 -7.2 61 61 NW 6 9 30.32 1027 10 16 N/A
7:53 pm 19:53 Clear 30 -1.1 18 -7.8 61 61 NW 5 7 30.34 1027 10 16 N/A
8:53 pm 20:53 Clear 29 -1.7 17 -8.3 61 61 N N/A 30.35 1028 10 16 N/A
9:53 pm 21:53 Clear 29 -1.7 17 -8.3 61 61 N N/A 30.37 1028 10 16 N/A
10:53 pm 22:53 Clear 28 -2.2 17 -8.3 63 63 NNW 3 6 30.37 1029 10 16 N/A
11:53 pm 23:53 Clear 25 -3.9 18 -7.8 75 75 N N/A 30.39 1029 10 16 N/A

Powered by AerisWeather